DECAYED

STARLINK-1280, 45388 (Decayed)

Orbit data source: Space-Track

STARLINK-1280, 45388 was a payload satellite owned by SpaceX/Seattle (US) in LEO that was launched on Wed, 18 Mar 2020 UTC via an FALCON 9 launch vehicle from the Air Force Eastern Test Range (AFETR). Payload-class satellites include a variety of spacecraft equipped with specific instruments for various scientific and technological missions. These include communications satellites like Starlink; space stations such as the ISS; scientific satellites like the Hubble; Earth observation satellites from companies like Planet Labs, Umbra, and HawkEye 360; GPS; miniature CubeSats for education and research; and military/defense satellites.

Not visible in the next 10 days
Identifier
45388, 2020-019AE
Orbit
Decayed
Country
Flag of USUS
Related business
Manufacturer
SpaceX/Seattle
Mission
Decayed Commercial Communications
Bus & Motor
STARLINK, Unknown motor
Mass
260 kg wet, ~248 kg dry
Launch date (UTC)
2020-03-18 (6 years ago)
Launch vehicle
FALCON 9
Launch site
Air Force Eastern Test Range (AFETR)
Object type
Payload
Rocket body
Debris
Shape & HBR
Box + 1 Pan, 10.1 m
Radar Cross Section
13.562 m², Large (>1 m²)

Expand to show TLE details & history
Last TLE update: 2 weeks ago

TLE from 2 weeks ago
0 STARLINK-1280
1 45388U 20019AE  26231.83342976  .11000890  12611-4  21612-3 0  9995
2 45388  53.0189  20.3523 0007668 298.9971  61.0309 16.46685012356173
Epoch: 2026-08-19T20:00Z
TLE epoch observation values (Epoch: 2026-08-19T20:00:08.331Z)
Latitude
-0.00001°
Longitude
112.13636°
Altitude
146.588 km
Speed
7.821 km/s
True Right ascension
01h 21m 24s
True Declination
0° 00' 00"
Sunlit
Object was in full shadow at epoch
Visualization orbit readout
Latitude
Unknown
Longitude
Unknown
Altitude
Unknown
Speed
Unknown
Apparent Right ascension
Unknown
Apparent Declination
Unknown
Sunlit
N/A
Visualization observer readout
Local Sidereal Time
01:50:52
Azimuth
Unknown
Elevation
Unknown
Doppler factor
Unknown
Orbital elements
Apogee altitude
153.377 km
Perigee altitude
143.368 km
Semi-major axis
6,526.509 km
Eccentricity
0.00077
Inclination
53.0189°
RAAN
20.3523°
Arg. of periapsis
298.9971°
True anomaly
61.10781°
Mean anomaly
61.0309°
Eccentric anomaly
61.06935°
Mean motion
4.11644 °/min
Orbital period
87.45 mins
BSTAR
0.00021612
Loading maneuver chart data...
Computing Atmospheric mass density...
Loading historical data...
Loading historical data...
Loading historical data...
Loading historical data...
Loading historical data...
Loading historical data...
Loading historical data...

Documentation

Showing up to 5 results
|